This is the latest recevied weather packets stored in our database for station/object N7TUG-8. If no packets are shown the sender has not sent any weather packets the latest 10 day(s).
| Time | Temp. | Humidity | Pressure | Rain* | Wind** | Luminosity | Snow |
|---|---|---|---|---|---|---|---|
| 1777996267 | 14.44° C | 81% | 1015.4 hPa | 0 mm | 1.79 m/s, 161° | - | - |
| 1777995811 | 14.44° C | 82% | 1015.4 hPa | 0 mm | 2.24 m/s, 136° | - | - |
| 1777994971 | 13.89° C | 83% | 1015.3 hPa | 0 mm | 2.24 m/s, 138° | - | - |
| 1777994201 | 13.89° C | 83% | 1015.2 hPa | 0 mm | 1.79 m/s, 160° | - | - |
| 1777993767 | 13.89° C | 84% | 1015.1 hPa | 0 mm | 2.24 m/s, 147° | - | - |
| 1777993295 | 13.89° C | 84% | 1015.1 hPa | 0 mm | 2.68 m/s, 142° | - | - |
| 1777992395 | 13.89° C | 83% | 1015 hPa | 0 mm | 2.24 m/s, 129° | - | - |
| 1777991541 | 13.89° C | 84% | 1014.8 hPa | 0 mm | 2.24 m/s, 144° | - | - |
| 1777991172 | 13.89° C | 84% | 1014.8 hPa | 0 mm | 2.24 m/s, 135° | - | - |
| 1777990755 | 13.89° C | 84% | 1014.7 hPa | 0 mm | 2.68 m/s, 137° | - | - |
| 1777989866 | 13.89° C | 83% | 1014.5 hPa | 0 mm | 3.13 m/s, 128° | - | - |
| 1777989066 | 13.89° C | 84% | 1014.4 hPa | 0 mm | 2.24 m/s, 141° | - | - |
| 1777988251 | 13.33° C | 84% | 1014.2 hPa | 0 mm | 2.68 m/s, 128° | - | - |
| 1777987992 | 13.89° C | 84% | 1014.1 hPa | 0 mm | 1.79 m/s, 147° | - | - |
| 1777987351 | 13.33° C | 85% | 1014.1 hPa | 0 mm | 3.13 m/s, 150° | - | - |
| 1777986461 | 13.33° C | 86% | 1013.9 hPa | 0 mm | 3.58 m/s, 144° | - | - |
| 1777985516 | 13.33° C | 86% | 1013.7 hPa | 0 mm | 2.68 m/s, 130° | - | - |
| 1777984747 | 13.33° C | 86% | 1013.7 hPa | 0 mm | 2.68 m/s, 134° | - | - |
| 1777984575 | 13.33° C | 86% | 1013.7 hPa | 0 mm | 2.68 m/s, 134° | - | - |
| 1777983992 | 13.33° C | 87% | 1013.6 hPa | 0 mm | 2.68 m/s, 129° | - | - |
| 1777983791 | 13.33° C | 86% | 1013.6 hPa | 0 mm | 2.24 m/s, 131° | - | - |
| 1777983021 | 13.33° C | 87% | 1013.6 hPa | 0 mm | 2.68 m/s, 141° | - | - |
| 1777982199 | 13.33° C | 87% | 1013.5 hPa | 0 mm | 3.13 m/s, 122° | - | - |
| 1777981542 | 13.33° C | 87% | 1013.5 hPa | 0 mm | 2.24 m/s, 141° | - | - |
| 1777981306 | 13.33° C | 87% | 1013.5 hPa | 0 mm | 2.68 m/s, 153° | - | - |
* Rain latest hour (hover to see other rain measurements)
** Current wind speed in m/s (hover to see current wind gust speed)